EST,Max TemperatureF,Mean TemperatureF,Min TemperatureF,Max Dew PointF,MeanDew PointF,Min DewpointF,Max Humidity, Mean Humidity, Min Humidity, Max Sea Level PressureIn, Mean Sea Level PressureIn, Min Sea Level PressureIn, Max VisibilityMiles, Mean VisibilityMiles, Min VisibilityMiles, Max Wind SpeedMPH, Mean Wind SpeedMPH, Max Gust SpeedMPH,PrecipitationIn, CloudCover, Events, WindDirDegrees
2012-11-1,45,42,38,44,40,35,100,92,81,29.55,29.46,29.41,10,9,2,16,9,24,0.18,8,Rain,226
2012-11-2,38,36,34,36,35,32,100,90,75,29.79,29.65,29.55,10,10,9,10,5,17,0.18,7,Rain,285
2012-11-3,38,36,33,35,31,28,100,82,70,30.01,29.91,29.79,10,10,9,17,7,22,0.01,8,Rain,310
2012-11-4,36,34,32,28,26,22,81,71,60,30.09,30.05,30.01,10,10,10,13,8,,0.00,8,Rain,334
2012-11-5,33,28,23,25,20,16,80,65,49,30.20,30.14,30.07,10,10,10,10,6,,0.00,6,,1
2012-11-6,37,28,19,22,17,14,92,69,39,30.25,30.20,30.16,10,10,10,8,3,,0.00,1,,94
2012-11-7,36,27,18,20,18,14,85,67,47,30.17,30.13,30.08,10,10,10,16,9,,0.00,0,,64
2012-11-8,37,31,25,24,22,18,83,72,58,30.10,30.07,30.04,10,10,10,15,8,,0.00,3,,17
2012-11-9,41,32,24,38,31,18,90,75,50,30.19,30.13,30.04,10,10,10,8,4,,0.00,7,,258
2012-11-10,46,42,37,39,33,26,100,76,46,30.35,30.29,30.19,10,10,8,15,5,,0.00,7,,60
2012-11-11,69,56,44,45,40,37,93,65,30,30.29,30.26,30.22,10,10,8,17,12,20,0.07,4,Rain,159
2012-11-12,69,56,43,50,46,37,100,76,46,30.22,30.07,29.92,10,10,7,29,17,39,0.22,5,Rain,223
2012-11-13,42,34,25,43,35,22,100,89,52,30.54,30.25,30.15,10,9,6,18,12,30,0.47,7,Rain-Snow,257
2012-11-14,41,32,23,27,22,19,99,74,41,30.68,30.56,30.50,10,10,7,9,4,,0.00,0,,111
2012-11-15,41,32,24,26,23,21,95,73,48,30.50,30.42,30.36,10,10,10,7,3,,0.00,0,,72
2012-11-16,44,32,21,28,24,20,98,78,46,30.52,30.44,30.36,10,10,10,7,2,,0.00,1,,187
2012-11-17,45,36,26,33,29,25,100,88,59,30.68,30.62,30.53,10,10,10,9,2,,0.00,5,,131
2012-11-18,46,36,27,30,28,26,93,78,45,30.70,30.64,30.56,10,10,10,12,8,,0.00,1,,110
2012-11-19,49,39,29,32,28,24,93,74,49,30.54,30.42,30.26,10,10,10,12,8,,0.00,0,,135
2012-11-20,48,40,31,31,28,26,90,68,43,30.25,30.19,30.14,10,10,10,10,5,,0.00,4,,95
2012-11-21,50,39,28,33,29,24,99,76,36,30.26,30.22,30.18,10,10,10,8,2,,0.00,2,,193
2012-11-22,58,44,31,31,28,26,87,60,30,30.22,30.14,29.97,10,10,10,14,10,16,0.00,1,,165
2012-11-23,53,45,37,46,36,27,100,79,45,29.96,29.68,29.62,10,10,7,20,13,37,0.16,6,Rain,218
2012-11-24,37,32,26,32,25,18,100,77,60,29.83,29.67,29.60,10,8,2,21,14,34,0.01,7,Rain-Snow,265
2012-11-25,28,24,19,29,22,14,100,85,64,29.87,29.83,29.80,10,8,2,12,7,22,0.00,6,Snow,245
2012-11-26,32,28,24,32,27,21,100,91,63,30.20,30.00,29.82,10,9,4,10,5,,0.04,7,Snow,189
2012-11-27,33,30,26,30,29,24,100,95,81,30.28,30.24,30.20,10,10,6,7,4,,0.03,7,Rain-Snow,175
2012-11-28,33,30,26,32,28,22,100,89,65,30.23,30.13,30.10,10,6,0,16,9,24,0.00,7,Fog-Rain-Snow,217
2012-11-29,41,30,20,34,28,14,100,84,70,30.36,30.19,30.11,10,10,7,17,8,28,0.03,6,Rain-Snow,276
2012-11-30,21,16,11,14,10,6,86,72,68,30.53,30.49,30.37,10,9,4,14,10,,0.00,8,Snow,53